This demonstration page uses our WeatherBlox Daily Observations layout. Learn more.

Left ArrowRight Arrow

39.08367, -84.50855

Hourly Observations for September 30, 2017

Temp ( °F °C ) Dew Point ( °F °C ) Humidity (%) Winds ( mph kmh ) Pressure ( in mb ) Visibility ( mi km ) Precip ( " mm )
12:53 am 00:53 Clear 59 15 45 7.2 60 60 NNE 5 7 30.25 1024 10 16 N/A
1:53 am 01:53 Clear 55 12.8 46 7.8 72 72 N 5 7 30.25 1024 10 16 N/A
2:53 am 02:53 Clear 51 10.6 46 7.8 83 83 NE 6 9 30.27 1025 10 16 N/A
3:53 am 03:53 Clear 52 11.1 46 7.8 80 80 NNE 9 15 30.28 1025 10 16 N/A
4:53 am 04:53 Clear 51 10.6 45 7.2 80 80 NE 9 15 30.30 1026 10 16 N/A
5:53 am 05:53 Clear 52 11.1 46 7.8 80 80 N N/A 30.31 1027 10 16 N/A
6:53 am 06:53 Clear 49 9.4 46 7.8 90 90 N N/A 30.33 1027 10 16 N/A
7:53 am 07:53 Sunny 47 8.3 46 7.8 97 97 N N/A 30.36 1028 10 16 N/A
8:53 am 08:53 Sunny 54 12.2 49 9.4 83 83 NE 6 9 30.37 1028 10 16 N/A
9:53 am 09:53 Sunny 59 15 50 10 72 72 ENE 10 17 30.38 1029 10 16 N/A
10:53 am 10:53 Sunny 63 17.2 50 10 63 63 E 12 19 30.39 1029 10 16 N/A
11:53 am 11:53 Mostly Sunny 66 18.9 49 9.4 54 54 ENE 12 19 30.38 1029 10 16 N/A
12:53 pm 12:53 Mostly Sunny 68 20 46 7.8 45 45 NE 14 22 30.38 1029 10 16 N/A
1:53 pm 13:53 Mostly Sunny 71 21.7 45 7.2 39 39 NE 14 22 30.37 1028 10 16 N/A
2:53 pm 14:53 Sunny 70 21.1 43 6.1 38 38 NE 10 17 30.35 1028 10 16 N/A
3:53 pm 15:53 Sunny 71 21.7 42 5.6 35 35 ENE 10 17 30.33 1027 10 16 N/A
4:53 pm 16:53 Sunny 71 21.7 42 5.6 35 35 NNE 10 17 30.31 1027 10 16 N/A
5:53 pm 17:53 Sunny 69 20.6 42 5.6 38 38 NE 10 17 30.30 1026 10 16 N/A
6:53 pm 18:53 Sunny 66 18.9 43 6.1 43 43 ENE 8 13 30.31 1026 10 16 N/A
7:53 pm 19:53 Clear 58 14.4 47 8.3 67 67 N N/A 30.32 1027 10 16 N/A
8:53 pm 20:53 Clear 54 12.2 48 8.9 80 80 NE 3 6 30.32 1027 10 16 N/A
9:53 pm 21:53 Clear 51 10.6 48 8.9 89 89 ENE 3 6 30.33 1027 10 16 N/A
10:53 pm 22:53 Clear 48 8.9 47 8.3 96 96 NE 5 7 30.34 1027 10 16 N/A
11:53 pm 23:53 Clear 47 8.3 46 7.8 97 97 ENE 5 7 30.34 1028 10 16 N/A

Powered by AerisWeather